Total_Precipitation_Accumulation
1.51 1.49 1.51 1.47 1.48 1.54 1.65 1.84 2.05 1.86 1.37 1.01 0.91 0.88 0.89 0.90 0.93 0.86 0.76 0.85 0.84 0.85 0.90 0.92 0.92 0.96 1.01 1.09 1.22 1.32 1.40 1.49 1.57 1.65 1.72 1.80 1.96 2.19
1.34 1.36 1.35 1.34 1.39 1.45 1.52 1.61 1.78 1.89 1.59 1.06 0.88 0.84 0.89 0.88 0.91 0.82 0.75 0.85 0.82 0.80 0.82 0.85 0.85 0.84 0.87 0.92 0.99 1.08 1.14 1.21 1.32 1.47 1.61 1.72 1.82 1.95
1.20 1.22 1.18 1.15 1.22 1.25 1.31 1.38 1.47 1.59 1.54 1.09 0.88 0.84 0.85 0.82 0.80 0.75 0.70 0.68 0.66 0.72 0.73 0.76 0.80 0.80 0.83 0.87 0.92 0.97 1.02 1.07 1.17 1.30 1.44 1.56 1.66 1.70
1.09 1.14 1.12 1.08 1.10 1.13 1.18 1.18 1.19 1.23 1.31 1.14 0.85 0.76 0.74 0.70 0.69 0.68 0.66 0.63 0.57 0.65 0.67 0.71 0.79 0.82 0.81 0.81 0.82 0.88 0.94 1.00 1.06 1.12 1.20 1.28 1.39 1.53
0.97 1.05 1.10 1.12 1.13 1.13 1.13 1.12 1.11 1.13 1.21 1.21 0.95 0.76 0.71 0.69 0.70 0.67 0.65 0.65 0.60 0.64 0.67 0.67 0.70 0.76 0.78 0.80 0.81 0.81 0.84 0.90 0.98 1.04 1.10 1.17 1.24 1.36
0.95 1.00 1.06 1.08 1.05 1.03 1.05 1.03 1.05 1.11 1.14 1.19 1.11 0.93 0.79 0.70 0.75 0.76 0.75 0.69 0.68 0.68 0.76 0.75 0.74 0.75 0.77 0.77 0.75 0.74 0.75 0.83 0.96 1.10 1.20 1.26 1.27 1.30
1.05 1.02 1.03 1.08 1.07 1.03 1.02 1.02 1.05 1.12 1.21 1.27 1.19 1.02 0.87 0.78 0.73 0.69 0.76 0.75 0.74 0.69 0.75 0.75 0.77 0.78 0.79 0.84 0.87 0.87 0.89 0.96 1.09 1.22 1.33 1.40 1.42 1.44
1.05 0.97 0.95 0.99 1.00 1.04 1.05 1.05 1.11 1.21 1.32 1.37 1.29 1.10 0.86 0.78 0.79 0.90 1.01 1.12 1.05 0.74 0.78 0.88 0.95 1.03 0.98 0.95 1.04 1.08 1.10 1.16 1.23 1.29 1.36 1.42 1.44 1.45
0.96 0.91 0.87 0.85 0.90 0.84 0.90 0.98 1.01 1.12 1.21 1.24 1.20 0.97 0.83 0.78 0.96 1.13 1.16 1.19 1.04 0.84 0.98 1.13 1.06 1.04 0.97 1.01 1.17 1.12 1.09 1.12 1.16 1.21 1.25 1.30 1.33 1.34
0.85 0.80 0.79 0.78 0.79 0.86 0.93 0.99 0.91 0.86 0.87 0.86 0.86 0.82 0.82 0.88 1.10 1.34 1.43 1.45 1.24 1.04 1.03 1.16 0.99 0.91 0.86 0.91 1.06 1.05 1.01 1.04 1.10 1.17 1.21 1.24 1.25 1.24
0.78 0.77 0.78 0.75 0.84 1.00 1.05 1.06 0.91 0.77 0.77 0.84 0.92 0.92 0.95 1.00 1.10 1.37 1.62 1.75 1.52 1.08 0.91 0.98 0.92 0.90 0.88 0.86 0.94 1.05 1.02 1.02 1.07 1.11 1.13 1.16 1.21 1.25
0.79 0.77 0.85 0.83 0.94 1.06 1.01 1.02 0.94 0.77 0.72 0.74 0.77 0.79 0.75 0.77 0.95 1.12 1.55 2.00 1.73 1.30 0.89 0.96 1.00 1.13 1.33 0.95 0.84 0.91 0.95 0.98 1.00 1.04 1.08 1.12 1.17 1.17
0.86 0.78 0.77 0.94 1.03 1.07 0.99 0.84 0.85 0.92 0.85 0.75 0.74 0.74 0.73 0.74 0.77 0.84 1.11 1.80 2.14 1.66 0.99 1.32 1.53 1.27 1.44 1.10 0.86 0.89 0.94 1.01 1.06 1.07 1.12 1.16 1.17 1.24
0.81 0.73 0.75 0.94 0.96 0.92 0.85 0.86 0.95 0.92 0.78 0.80 0.79 0.76 0.75 0.76 0.79 0.84 0.90 1.09 1.45 1.62 1.27 1.55 1.96 1.55 1.63 1.35 0.98 0.92 0.99 1.13 1.28 1.27 1.21 1.30 1.28 1.29
0.78 0.82 0.86 0.88 0.83 0.79 0.82 0.85 0.83 0.79 0.84 0.92 0.88 0.80 0.78 0.82 0.88 0.94 0.96 0.98 1.07 1.13 1.15 1.24 1.55 1.57 1.72 1.65 1.25 1.05 1.15 1.23 1.39 1.58 1.54 1.41 1.29 1.27
0.80 0.82 0.79 0.77 0.75 0.76 0.82 0.80 0.74 0.79 0.96 1.02 0.93 0.85 0.86 0.93 0.98 1.05 1.19 1.21 1.30 1.23 1.13 1.09 1.18 1.46 1.57 1.29 1.35 1.30 1.30 1.58 1.63 1.81 1.79 1.55 1.34 1.21
0.81 0.71 0.66 0.67 0.68 0.68 0.67 0.71 0.74 0.79 0.89 0.91 0.97 0.98 0.97 1.05 1.14 1.24 1.41 1.49 1.53 1.33 1.15 1.01 0.98 1.07 1.23 1.30 1.34 1.22 1.29 1.54 1.75 1.87 1.89 1.75 1.53 1.34
0.78 0.69 0.64 0.62 0.63 0.65 0.66 0.68 0.72 0.78 0.88 1.01 1.07 1.11 1.17 1.24 1.33 1.38 1.52 1.64 1.56 1.30 1.11 0.97 0.94 1.04 1.06 1.05 1.14 1.27 1.36 1.55 1.70 1.73 1.63 1.67 1.64 1.41
0.63 0.60 0.60 0.61 0.61 0.63 0.69 0.74 0.77 0.79 0.94 1.15 1.25 1.30 1.39 1.44 1.50 1.54 1.56 1.54 1.39 1.20 1.06 0.97 1.06 1.39 1.42 1.05 0.85 1.08 1.53 1.66 1.58 1.56 1.43 1.39 1.49 1.35
0.54 0.54 0.54 0.57 0.63 0.68 0.74 0.83 0.88 0.91 1.03 1.17 1.28 1.34 1.45 1.58 1.62 1.55 1.46 1.40 1.30 1.11 0.94 0.83 0.93 1.34 1.79 1.58 1.27 1.12 1.26 1.55 1.65 1.60 1.34 1.20 1.26 1.25
0.50 0.50 0.51 0.57 0.65 0.71 0.78 0.87 0.98 1.09 1.18 1.33 1.39 1.41 1.49 1.67 1.64 1.45 1.31 1.21 1.15 1.03 0.90 0.73 0.72 0.96 1.31 1.51 1.40 1.17 1.23 1.35 1.50 1.73 1.63 1.52 1.36 1.22
0.53 0.53 0.53 0.58 0.66 0.73 0.80 0.92 1.05 1.12 1.22 1.32 1.37 1.41 1.48 1.58 1.54 1.30 1.12 1.08 1.00 0.93 0.87 0.74 0.69 0.81 1.11 1.45 1.31 1.07 1.08 1.11 1.11 1.12 1.32 1.66 2.03 2.04
0.60 0.62 0.61 0.63 0.69 0.77 0.86 0.94 1.06 1.14 1.23 1.35 1.39 1.35 1.34 1.30 1.14 1.07 1.02 1.00 1.00 0.94 0.89 0.85 0.79 0.82 0.94 1.06 1.15 1.07 0.98 0.95 0.92 1.04 1.28 1.26 1.30 1.48